Weather History for Dutch Harbor, AK

Change the Weather History Date:

Thursday, November 24, 2011

  Actual Average Record
Temperature  
Mean Temperature 30 °F -  
Max Temperature 33 °F 39 °F 50 °F (1997)
Min Temperature 28 °F 27 °F 19 °F (1991)
Degree Days  
Heating Degree Days 34    
Moisture  
Dew Point 24 °F    
Average Humidity 77    
Maximum Humidity 86    
Minimum Humidity 54    
Precipitation  
Precipitation 0.00 in - - ()
Sea Level Pressure  
Sea Level Pressure 29.64 in    
Wind  
Wind Speed 17 mph (NNW)    
Max Wind Speed 33 mph    
Max Gust Speed 51 mph    
Visibility 6 miles    
Events Snow    
Averages and records for this station are not official NWS values.
T = Trace of Precipitation, MM = Missing Value Source: NWS Daily Summary

Daily Weather History Graph

Daily Weather History Graph

Search for Another Location

Airport:

Trip Planner

Search our weather history database for the weather conditions in past years. The results will help you decide how hot, cold, wet, or windy it might be!

Date:

Astronomy

Nov. 24, 2011 Rise Set
Actual Time 9:49 AM AKST 5:55 PM AKST
Civil Twilight 9:08 AM AKST 6:36 PM AKST
Nautical Twilight 8:24 AM AKST 7:20 PM AKST
Astronomical Twilight 7:42 AM AKST 8:02 PM AKST
Moon 9:28 AM AKST (11/24) 5:30 PM AKST (11/24)
Length of Visible Light 9h 27m
Length of Day
8h 05m
Waning Crescent, 0% of the Moon is Illuminated
Nov 24
Waning Crescent
Nov 24
New
Dec 2
First Quarter
Dec 10
Full
Dec 17
Last Quarter

Hourly Weather History & Observations

Time (AKST) Temp. Windchill Dew Point Humidity Pressure Visibility Wind Dir Wind Speed Gust Speed Precip Events Conditions
12:40 AM 28.4 °F 17.0 °F 24.8 °F 86% 29.50 in 4.0 mi North 15.0 mph - 0.00 in Snow Light Snow
12:51 AM 28.4 °F 17.5 °F 23.0 °F 80% 29.50 in 6.0 mi North 13.8 mph - 0.00 in Snow Light Snow
12:58 AM 28.0 °F 18.1 °F 24.1 °F 85% 29.52 in 3.0 mi North 11.5 mph - 0.00 in Snow Light Snow
1:00 AM 28.4 °F 18.0 °F 24.8 °F 86% 29.51 in 2.5 mi North 12.7 mph - 0.00 in Snow Light Snow
1:07 AM 28.4 °F 20.4 °F 24.8 °F 86% 29.50 in 3.0 mi NNW 8.1 mph - 0.00 in Snow Light Snow
1:10 AM 28.4 °F 21.2 °F 24.8 °F 86% 29.50 in 5.0 mi NNW 6.9 mph - 0.00 in Snow Light Snow
1:58 AM 30.9 °F 20.7 °F 23.0 °F 72% 29.52 in 9.0 mi WNW 13.8 mph - 0.00 in Snow Light Snow
2:36 AM 30.2 °F 17.4 °F 24.8 °F 80% 29.52 in 5.0 mi NW 20.7 mph 25.3 mph 0.00 in Snow Light Snow
2:40 AM 28.4 °F 16.6 °F 24.8 °F 86% 29.51 in 4.0 mi NW 16.1 mph 25.3 mph 0.00 in Snow Light Snow
2:48 AM 30.2 °F 18.5 °F 24.8 °F 80% 29.51 in 8.0 mi WNW 17.3 mph - 0.00 in Snow Light Snow
2:58 AM 30.0 °F 21.1 °F 25.0 °F 82% 29.53 in 9.0 mi West 10.4 mph - 0.00 in Snow Light Snow
3:10 AM 30.2 °F 18.9 °F 23.0 °F 75% 29.52 in 8.0 mi NW 16.1 mph 20.7 mph 0.00 in Snow Light Snow
3:22 AM 30.2 °F 18.1 °F 23.0 °F 75% 29.52 in 7.0 mi WNW 18.4 mph 24.2 mph 0.00 in Snow Light Snow
3:28 AM 30.2 °F 19.3 °F 24.8 °F 80% 29.52 in 5.0 mi WNW 15.0 mph - 0.00 in Snow Light Snow
3:58 AM 30.0 °F 21.7 °F 21.9 °F 72% 29.52 in 10.0 mi West 9.2 mph - 0.00 in   Mostly Cloudy
4:39 AM 30.2 °F 17.4 °F 24.8 °F 80% 29.51 in 2.5 mi NNW 20.7 mph - 0.00 in Snow Light Snow
4:45 AM 28.4 °F 18.5 °F 23.0 °F 80% 29.51 in 4.0 mi NNW 11.5 mph - 0.00 in Snow Light Snow
4:50 AM 30.2 °F 17.4 °F 21.2 °F 69% 29.52 in 9.0 mi NW 20.7 mph 28.8 mph 0.00 in Snow Light Snow
4:58 AM 32.0 °F 19.5 °F 18.0 °F 56% 29.53 in 9.0 mi WNW 21.9 mph 28.8 mph 0.00 in   Mostly Cloudy
5:58 AM 32.0 °F 19.8 °F 21.0 °F 64% 29.53 in 10.0 mi WNW 20.7 mph 25.3 mph 0.00 in   Mostly Cloudy
6:45 AM 30.2 °F 18.5 °F 21.2 °F 69% 29.53 in 3.0 mi NW 17.3 mph - 0.00 in Snow Light Snow
6:52 AM 30.2 °F 17.4 °F 21.2 °F 69% 29.53 in 7.0 mi NW 20.7 mph 25.3 mph 0.00 in Snow Light Snow
6:58 AM 30.9 °F 18.4 °F 23.0 °F 72% 29.55 in 9.0 mi NW 20.7 mph 26.5 mph 0.00 in   Overcast
7:58 AM 30.0 °F 17.9 °F 23.0 °F 75% 29.56 in 9.0 mi NW 18.4 mph 29.9 mph 0.00 in Snow Light Snow
8:20 AM 30.2 °F 21.3 °F 24.8 °F 80% 29.54 in 4.0 mi WNW 10.4 mph - 0.00 in Snow Light Snow
8:23 AM 30.2 °F 20.8 °F 24.8 °F 80% 29.55 in 2.5 mi WNW 11.5 mph - 0.00 in Snow Light Snow
8:32 AM 28.4 °F 19.1 °F 24.8 °F 86% 29.54 in 5.0 mi NW 10.4 mph - 0.00 in Snow Light Snow
8:58 AM 32.0 °F 20.1 °F 21.0 °F 64% 29.56 in 10.0 mi NW 19.6 mph 26.5 mph 0.00 in   Mostly Cloudy
9:15 AM 30.2 °F 16.5 °F 24.8 °F 80% 29.56 in 2.5 mi NNW 24.2 mph 38.0 mph 0.00 in Snow Light Snow
9:18 AM 28.4 °F 14.4 °F 24.8 °F 86% 29.56 in 1.8 mi NNW 23.0 mph 38.0 mph 0.00 in Snow Light Snow
9:23 AM 28.4 °F 16.6 °F 24.8 °F 86% 29.56 in 1.2 mi NW 16.1 mph - 0.00 in Snow Light Snow
9:26 AM 28.4 °F 17.5 °F 24.8 °F 86% 29.56 in 1.5 mi NW 13.8 mph - 0.00 in Snow Light Snow
9:30 AM 28.4 °F 17.5 °F 24.8 °F 86% 29.57 in 2.5 mi NW 13.8 mph - 0.00 in Snow Light Snow
9:35 AM 28.4 °F 17.0 °F 24.8 °F 86% 29.57 in 4.0 mi NW 15.0 mph - 0.00 in Snow Light Snow
9:44 AM 30.2 °F 19.8 °F 23.0 °F 75% 29.56 in 6.0 mi NW 13.8 mph - 0.00 in Snow Light Snow
9:50 AM 30.2 °F 19.8 °F 23.0 °F 75% 29.57 in 9.0 mi NW 13.8 mph - 0.00 in Snow Light Snow
9:58 AM 30.9 °F 20.2 °F 23.0 °F 72% 29.58 in 9.0 mi WNW 15.0 mph - 0.00 in Snow Light Snow
10:58 AM 32.0 °F 21.2 °F 19.0 °F 59% 29.59 in 10.0 mi NW 16.1 mph - 0.00 in   Overcast
11:58 AM 32.0 °F 19.8 °F 21.0 °F 64% 29.61 in 10.0 mi NNW 20.7 mph - 0.00 in   Mostly Cloudy
12:23 PM 30.2 °F 16.5 °F 24.8 °F 80% 29.61 in 2.5 mi NNW 24.2 mph 34.5 mph 0.00 in Snow Light Snow
12:29 PM 30.2 °F 17.1 °F 23.0 °F 75% 29.60 in 4.0 mi NNW 21.9 mph - N/A Snow Light Snow
12:34 PM 30.2 °F 17.8 °F 21.2 °F 69% 29.61 in 9.0 mi NNW 19.6 mph - 0.00 in   Overcast
12:41 PM 30.2 °F 18.1 °F 23.0 °F 75% 29.60 in 10.0 mi NNW 18.4 mph 24.2 mph 0.00 in   Overcast
12:48 PM 30.2 °F 18.1 °F 23.0 °F 75% 29.60 in 10.0 mi NNW 18.4 mph 25.3 mph 0.00 in   Overcast
12:58 PM 32.0 °F 20.8 °F 21.0 °F 64% 29.62 in 10.0 mi NNW 17.3 mph 27.6 mph 0.00 in   Overcast
1:58 PM 32.0 °F 20.1 °F 19.0 °F 59% 29.63 in 10.0 mi NNW 19.6 mph 29.9 mph 0.00 in   Overcast
2:46 PM 30.2 °F 14.5 °F 24.8 °F 80% 29.63 in 2.5 mi North 33.4 mph 42.6 mph 0.00 in   Overcast
2:49 PM 30.2 °F 17.1 °F 24.8 °F 80% 29.64 in 1.2 mi North 21.9 mph 42.6 mph 0.00 in   Overcast
2:51 PM 28.4 °F 15.1 °F 24.8 °F 86% 29.64 in 0.8 mi NNW 20.7 mph 42.6 mph 0.00 in Snow Light Snow
2:54 PM 28.4 °F 16.6 °F 24.8 °F 86% 29.64 in 0.8 mi North 16.1 mph 28.8 mph 0.00 in Snow Light Snow
2:58 PM 28.9 °F 19.2 °F 24.1 °F 82% 29.65 in 1.0 mi North 11.5 mph 28.8 mph 0.00 in Snow Light Snow
3:00 PM 28.4 °F 18.5 °F 24.8 °F 86% 29.63 in 1.5 mi North 11.5 mph 21.9 mph 0.00 in Snow Light Snow
3:03 PM 28.4 °F 17.5 °F 24.8 °F 86% 29.63 in 3.0 mi NNW 13.8 mph 21.9 mph 0.00 in Snow Light Snow
3:08 PM 30.2 °F 18.1 °F 24.8 °F 80% 29.63 in 8.0 mi North 18.4 mph 21.9 mph 0.00 in Snow Light Snow
3:18 PM 32.0 °F 17.9 °F 24.8 °F 75% 29.64 in 3.0 mi NNW 28.8 mph 50.6 mph 0.00 in   Overcast
3:22 PM 30.2 °F 15.2 °F 26.6 °F 86% 29.64 in 2.5 mi North 29.9 mph 50.6 mph 0.00 in   Overcast
3:27 PM 30.2 °F 17.4 °F 26.6 °F 86% 29.65 in 1.5 mi NNW 20.7 mph 39.1 mph 0.00 in Snow Light Snow
3:35 PM 30.2 °F 16.5 °F 24.8 °F 80% 29.64 in 3.0 mi NNW 24.2 mph - 0.00 in Snow Light Snow
3:39 PM 30.2 °F 16.5 °F 24.8 °F 80% 29.64 in 9.0 mi NNW 24.2 mph - 0.00 in   Overcast
3:58 PM 32.0 °F 18.1 °F 19.9 °F 61% 29.66 in 10.0 mi NNW 27.6 mph 35.7 mph 0.00 in   Overcast
4:58 PM 32.0 °F 18.6 °F 19.9 °F 61% 29.70 in 10.0 mi NNW 25.3 mph 33.4 mph 0.00 in   Overcast
5:58 PM 32.0 °F 20.5 °F 19.0 °F 59% 29.72 in 10.0 mi North 18.4 mph 33.4 mph 0.00 in   Overcast
6:36 PM 32.0 °F 20.5 °F 24.8 °F 75% 29.72 in 10.0 mi WNW 18.4 mph 27.6 mph 0.00 in   Overcast
6:58 PM 30.9 °F 19.1 °F 24.1 °F 76% 29.75 in 6.0 mi NW 18.4 mph 32.2 mph 0.00 in   Overcast
7:12 PM 32.0 °F 20.5 °F 24.8 °F 75% 29.73 in 10.0 mi NNW 18.4 mph 28.8 mph 0.00 in   Overcast
7:58 PM 30.9 °F 17.8 °F 23.0 °F 72% 29.78 in 10.0 mi NW 23.0 mph - 0.00 in   Mostly Cloudy
8:06 PM 30.2 °F 15.2 °F 24.8 °F 80% 29.75 in 4.0 mi North 29.9 mph 34.5 mph 0.00 in Snow Light Snow
8:08 PM 30.2 °F 15.7 °F 24.8 °F 80% 29.76 in 2.5 mi North 27.6 mph 34.5 mph 0.00 in Snow Light Snow
8:13 PM 28.4 °F 17.5 °F 24.8 °F 86% 29.77 in 3.0 mi NNE 13.8 mph 34.5 mph 0.00 in Snow Light Snow
8:20 PM 30.2 °F 17.8 °F 23.0 °F 75% 29.76 in 9.0 mi NNW 19.6 mph 23.0 mph 0.00 in Snow Light Snow
8:39 PM 30.2 °F 16.8 °F 24.8 °F 80% 29.77 in 8.0 mi NW 23.0 mph 28.8 mph 0.00 in Snow Light Snow
8:43 PM 32.0 °F 20.1 °F 21.2 °F 64% 29.77 in 9.0 mi NNW 19.6 mph 28.8 mph N/A   Mostly Cloudy
8:51 PM 30.2 °F 14.7 °F 26.6 °F 86% 29.78 in 2.5 mi North 32.2 mph 42.6 mph 0.00 in   Overcast
8:54 PM 30.2 °F 14.7 °F 26.6 °F 86% 29.78 in 1.2 mi North 32.2 mph 42.6 mph 0.00 in Snow Light Snow
8:58 PM 28.9 °F 16.9 °F 24.1 °F 82% 29.81 in 1.0 mi NNW 17.3 mph 42.6 mph 0.00 in Snow Light Snow
9:01 PM 28.4 °F 15.1 °F 24.8 °F 86% 29.79 in 1.5 mi NNW 20.7 mph 40.3 mph 0.00 in Snow Light Snow
9:04 PM 30.2 °F 16.8 °F 24.8 °F 80% 29.79 in 3.0 mi NW 23.0 mph 28.8 mph 0.00 in Snow Light Snow
9:08 PM 30.2 °F 16.8 °F 24.8 °F 80% 29.79 in 7.0 mi NW 23.0 mph 28.8 mph 0.00 in Snow Light Snow
9:12 PM 30.2 °F 19.8 °F 24.8 °F 80% 29.79 in 6.0 mi WNW 13.8 mph 28.8 mph 0.00 in Snow Light Snow
9:46 PM 30.2 °F 15.7 °F 26.6 °F 86% 29.80 in 9.0 mi NNW 27.6 mph 33.4 mph 0.00 in Snow Light Snow
9:57 PM 30.9 °F 17.8 °F 25.0 °F 79% 29.83 in 4.0 mi NNW 23.0 mph - 0.00 in Snow Light Snow
10:02 PM 30.2 °F 15.7 °F 24.8 °F 80% 29.81 in 4.0 mi NNW 27.6 mph 33.4 mph 0.00 in Snow Light Snow
10:08 PM 30.2 °F 16.5 °F 26.6 °F 86% 29.81 in 6.0 mi NNW 24.2 mph 33.4 mph N/A Snow Light Snow
10:23 PM 32.0 °F 18.6 °F 24.8 °F 75% 29.81 in 10.0 mi North 25.3 mph 35.7 mph 0.00 in   Overcast
10:33 PM 32.0 °F 18.1 °F 23.0 °F 69% 29.82 in 6.0 mi NNW 27.6 mph 36.8 mph 0.00 in   Overcast
10:58 PM 33.1 °F 19.6 °F 19.0 °F 56% 29.84 in 10.0 mi NNW 27.6 mph 38.0 mph 0.00 in   Overcast
11:58 PM 33.1 °F 20.3 °F 18.0 °F 54% 29.87 in 10.0 mi NNW 24.2 mph 36.8 mph 0.00 in   Mostly Cloudy